CAPE
5 1 0 15 18 52 40 1 0 0 0 562 229 277 795 1758 1618 1264 910 775 670 660 583 534 533 423 383 269 175 187 164 89 168 274 417 547 392 381 501 501 545 470 270 405
73 31 18 37 71 44 0 0 0 0 0 218 40 1614 1671 1628 1449 1161 910 753 669 693 619 549 484 423 127 29 151 135 96 38 47 20 124 419 450 349 375 272 139 228 412 219
257 148 108 78 122 12 0 0 0 0 100 485 389 78 1462 1403 1190 819 923 756 794 652 468 320 165 4 0 0 0 0 0 0 1 1 1 21 98 150 208 209 345 300 241 321
35 0 0 15 6 0 0 0 0 0 17 394 678 606 897 1384 1055 1007 1028 821 588 359 194 82 1 5 0 0 0 0 0 3 1 0 26 94 177 160 252 252 179 204 352 278
0 0 0 2 8 0 0 0 0 0 222 367 608 602 1115 1334 1301 1201 862 708 316 218 88 0 0 0 0 0 0 0 3 29 71 123 223 234 114 73 88 88 122 184 311 309
0 0 0 0 0 0 0 0 15 0 164 260 88 261 953 671 468 786 585 285 53 2 0 0 0 0 0 1 8 11 14 17 19 20 24 14 14 1 0 0 7 45 81 115
0 0 0 2 1 0 0 55 6 11 87 164 331 457 168 85 76 47 6 0 0 0 0 1 5 2 2 0 3 23 29 28 11 19 26 4 10 13 23 24 25 41 127 194
0 6 16 1 0 20 260 141 63 182 203 245 237 145 36 3 0 0 0 0 0 0 0 0 1 2 0 0 0 0 0 0 9 28 19 11 14 12 14 12 8 0 0 69
0 306 202 31 54 8 95 120 85 48 5 7 2 0 0 0 0 0 0 0 0 0 0 0 0 0 0 0 0 0 0 1 1 15 4 7 7 28 23 16 19 18 32 25
0 24 65 4 0 0 25 20 2 0 0 0 0 0 0 0 0 0 0 0 0 0 0 0 0 0 0 0 0 0 1 9 6 1 0 0 2 5 6 12 0 20 18 29
0 95 61 14 0 0 0 0 0 0 0 0 0 0 0 0 0 0 0 0 0 0 0 0 1 3 4 8 6 2 0 0 0 3 1 0 2 3 7 4 4 6 9 16
6 223 158 9 0 0 0 0 0 0 0 0 0 0 0 0 0 0 0 0 0 2 5 4 1 2 2 3 0 2 0 0 2 2 2 2 1 0 0 0 1 0 0 1
3 117 3 7 0 0 0 0 0 0 0 0 0 0 0 0 0 0 0 0 2 0 5 1 2 2 1 6 7 7 3 2 3 2 7 4 5 7 9 0 0 0 0 0
0 0 39 0 0 0 0 0 0 0 0 0 0 0 0 0 0 1 2 0 1 1 1 0 0 1 1 1 3 2 4 1 4 1 4 5 4 4 3 3 2 1 0 9
0 0 0 8 0 0 0 0 0 0 0 0 0 0 0 0 2 1 0 0 2 1 1 1 1 0 2 2 2 5 3 3 5 9 10 12 9 5 8 12 9 7 4 0
0 16 10 2 0 0 0 0 0 0 0 0 0 0 0 2 2 1 1 0 2 4 2 5 2 2 4 5 2 0 3 6 13 20 14 10 16 17 14 14 15 14 12 1
4 16 20 19 11 0 0 0 0 0 0 0 0 0 0 1 0 0 0 0 0 0 0 3 7 4 1 2 5 5 8 8 11 13 10 12 0 1 2 3 5 4 15 6
31 27 26 16 2 0 0 0 0 0 0 0 0 0 0 0 0 0 0 0 1 3 10 0 0 0 1 6 6 1 5 6 12 9 3 7 5 11 7 5 3 9 4 3
19 0 0 0 0 0 0 0 0 0 0 0 1 0 1 0 0 0 0 0 1 0 0 0 0 2 0 0 0 0 6 6 7 4 4 9 8 6 9 3 3 5 3 3
0 0 0 0 0 0 0 0 0 0 0 0 0 1 0 0 0 0 0 0 1 0 0 0 0 2 0 0 0 0 3 4 3 5 5 5 5 7 4 1 4 3 3 4
0 0 0 0 0 0 0 0 0 0 0 0 0 0 0 0 0 0 1 0 0 0 0 0 0 0 0 0 0 0 1 4 4 4 3 3 4 3 3 2 6 4 4 3
0 0 0 0 0 0 0 0 0 0 0 0 0 0 0 0 0 0 0 0 0 0 0 0 0 0 0 0 0 0 1 4 3 2 2 2 2 2 3 3 3 3 3 3
0 0 0 0 0 0 0 3 2 0 0 0 0 0 0 0 0 0 0 0 0 0 0 0 0 0 0 0 0 0 0 2 2 1 1 1 2 1 2 2 2 3 2 3
0 0 0 0 0 0 1 1 7 2 0 0 0 0 0 0 0 0 1 0 0 0 0 0 0 0 0 0 0 0 0 1 1 1 1 1 2 3 2 3 3 2 2 3
0 0 0 0 0 0 3 1 1 20 7 1 0 0 1 3 8 0 0 0 0 0 0 0 0 0 0 0 0 0 0 0 1 1 2 3 3 3 2 3 2 2 3 4
0 0 0 0 0 10 18 13 18 5 0 0 0 1 6 17 22 3 27 9 0 0 0 0 0 0 0 0 0 0 0 0 0 2 2 3 3 4 4 4 4 3 4 4
0 0 0 0 0 0 5 1 2 3 0 0 0 1 17 20 22 15 11 27 0 0 0 0 0 0 0 0 0 1 0 0 0 1 2 3 3 4 4 3 3 3 3 3
CIN
-22 -39 0 -199 -86 -45 -3 -1 0 0 0 -88 -212 -180 -21 -18 -92 -53 -77 -69 -108 -125 -155 -175 -178 -189 -192 -202 -201 -200 -173 -180 -148 -126 -108 -94 -121 -116 -73 -41 -14 -6 -38 -22
-38 -77 -94 -115 -15 -12 0 0 0 0 0 -30 -18 -13 -38 -10 -25 -63 -91 -16 -16 -37 -75 -92 -105 -106 -198 -243 -173 -190 -174 -186 -177 -197 -146 -89 -77 -79 -65 -71 -81 -17 -2 -26
-6 -16 -31 -59 -16 -13 0 0 0 0 -57 -49 -53 -42 -7 -21 -23 -15 -7 -42 -3 -14 -37 -45 -131 -43 0 0 0 0 0 0 -58 -50 -45 -131 -89 -59 -41 -35 -5 -8 -16 -4
-39 0 0 -14 -37 0 0 0 0 0 -39 -48 -43 -17 -10 -25 -31 -12 -22 -48 -19 -30 -65 -119 -112 -211 0 0 0 0 -7 -73 -27 0 -106 -74 -30 -13 -15 -20 -23 -17 -2 -3
0 0 0 -2 -9 0 0 0 0 0 -51 -19 -25 -26 -10 -33 -38 -38 -50 -60 -52 -31 -87 -6 0 0 0 0 0 0 -3 -50 -52 -48 -32 -23 -32 -16 -36 -64 -55 -13 -3 -5
0 0 0 0 0 0 0 0 -25 0 -22 -21 -96 -50 -37 -59 -72 -5 -11 -22 -58 -114 0 0 0 0 -1 -3 -4 -5 -6 -8 -11 -10 -10 -11 -11 -1 0 0 0 -82 -63 -35
0 0 0 -10 -11 0 0 -23 -101 -78 -43 -43 -18 -32 -67 -126 -141 -140 -112 0 0 0 0 -1 -7 -8 -9 0 -2 -23 -55 -35 -15 -13 -106 -6 -8 -3 -2 -35 -69 -99 -36 -7
0 -3 -4 -14 0 -13 -64 -45 -61 -41 -35 -12 -21 -48 -140 -70 0 0 0 0 0 0 0 0 -15 -12 0 0 0 0 0 0 -21 -14 -15 -8 -11 -7 -4 -5 -4 0 0 -37
0 -17 -92 -116 -92 -150 -56 -86 -86 -112 -178 -11 -12 0 0 0 0 0 0 0 0 0 0 0 0 0 0 0 0 0 0 -1 -2 -20 -12 -3 -3 -1 -4 -7 -3 -2 -1 -3
0 -24 -120 -151 0 -12 -125 -151 -137 0 0 0 0 0 0 0 0 0 0 0 0 0 0 0 0 0 0 0 0 0 -2 -1 -1 0 0 -7 -41 -16 -1 -4 -1 -13 -14 -14
0 -18 -91 -124 0 -39 0 0 0 0 0 0 0 0 0 0 0 0 0 0 0 0 0 0 0 -2 -1 -1 -1 0 0 0 0 -1 0 0 -53 -16 -26 -21 -11 -13 -11 -13
-3 -24 -25 -67 0 0 0 0 0 0 0 0 0 0 0 0 0 0 0 0 0 -1 -3 -2 -10 -5 -4 -6 0 0 0 0 0 0 0 0 0 0 0 -6 -14 0 -17 -25
-4 -25 -31 -61 0 0 0 0 0 0 0 0 0 0 0 0 0 0 0 0 -1 -2 -2 0 -3 -3 -1 0 0 0 0 0 -2 -1 0 -1 0 0 0 0 0 0 0 -42
0 0 -23 0 0 0 0 0 0 0 0 0 0 0 0 0 0 -1 -1 0 -1 -1 -3 -2 0 -1 -2 -3 -1 -3 -5 -2 -1 0 -1 0 0 0 0 0 0 0 -7 -7
0 0 0 -4 0 0 0 0 0 0 0 0 0 0 0 0 -1 -1 -1 -1 -1 -1 -2 -2 -5 -3 -2 -1 -2 -4 -2 -2 -5 -5 -4 -2 -2 -2 0 0 0 0 0 0
0 -3 -11 -12 0 0 0 0 0 0 0 0 0 0 0 0 -1 -1 -1 0 0 0 -1 0 -2 -1 -3 -3 -3 -1 -4 -6 -1 0 0 0 0 0 0 0 -1 0 0 0
-2 -1 -3 -1 -1 0 0 0 0 0 0 0 0 0 0 -1 0 0 0 0 0 0 0 -1 -2 -2 -2 -1 -2 -1 0 0 -1 0 0 0 0 0 0 0 0 0 0 0
-2 -5 -9 -4 -7 0 0 0 0 0 0 0 0 -1 0 0 -1 0 0 -1 -1 -2 -3 0 0 0 -1 -4 -3 -1 0 0 0 0 -1 -3 0 -1 0 0 0 0 0 0
-36 0 0 0 0 0 0 0 0 0 0 0 -1 0 0 0 0 0 0 0 -2 0 0 0 0 -2 -3 0 0 0 -1 0 0 0 0 0 0 0 0 0 0 0 0 0
0 0 0 0 0 0 0 0 0 0 0 0 0 -1 0 0 0 0 0 -1 -2 0 0 0 0 -10 0 0 0 0 0 0 0 0 0 0 0 0 0 0 0 0 0 0
0 0 0 0 0 0 0 0 0 0 0 0 0 0 0 0 0 0 -1 0 0 0 0 0 -8 0 0 0 0 0 0 0 0 0 0 0 0 0 0 0 0 0 0 0
0 0 0 0 0 0 0 0 0 0 0 0 0 0 0 0 0 0 0 0 0 0 0 0 0 0 0 0 -1 0 0 0 0 0 0 0 0 0 0 0 0 0 0 0
0 0 0 0 0 0 0 -1 -1 0 0 0 0 0 0 0 0 0 0 0 0 0 0 0 0 0 0 0 0 0 0 0 0 0 0 0 0 0 0 0 0 0 0 0
0 0 0 0 0 0 -2 -9 -1 -3 0 0 0 0 0 0 0 -1 -1 0 0 0 0 0 0 0 0 0 0 0 0 0 0 0 0 0 0 0 0 0 0 0 0 0
0 0 0 0 0 -1 -7 -1 -4 -8 -7 -2 0 0 -10 -3 -2 -2 -2 0 0 0 0 0 0 0 0 0 0 0 0 0 0 0 0 0 0 0 0 0 0 0 0 0
0 0 0 0 0 -5 -15 -5 -1 -1 0 0 0 -2 -2 -2 -2 -2 -2 -7 0 0 0 0 0 0 0 0 0 0 0 0 0 0 0 0 0 0 0 0 0 0 0 0
0 0 0 0 0 0 -6 -2 -2 -2 0 0 0 -2 -2 -3 -2 -7 -7 -1 0 0 0 0 0 0 0 0 0 -2 0 0 0 0 0 0 0 0 0 0 0 0 0 0
Wind_Speed
12 10 20 19 20 23 25 27 30 34 35 10 6 0 17 29 10 8 8 8 9 9 9 9 9 10 11 12 14 16 17 20 22 23 25 27 30 31 33 34 34 35 36 35
5 5 10 26 23 30 32 33 35 34 33 26 18 6 4 11 9 7 7 7 7 7 8 9 10 11 13 16 17 19 22 24 26 28 29 30 30 32 33 33 34 34 34 34
26 9 5 17 6 22 23 25 26 28 25 27 27 22 14 8 9 9 8 9 9 10 11 11 12 15 19 17 18 22 25 28 29 30 31 32 32 33 33 34 35 34 33 32
27 28 30 30 19 20 25 28 27 23 23 23 23 22 19 13 13 11 10 14 11 13 14 15 17 21 24 26 28 29 30 31 32 33 33 34 35 36 37 38 38 37 34 30
27 31 32 31 24 17 17 22 12 16 17 16 18 18 16 13 12 13 14 16 17 15 18 20 23 26 28 28 30 31 33 33 34 35 36 37 38 39 40 41 41 39 36 34
29 31 35 34 15 14 15 25 10 13 14 16 19 17 17 16 18 16 15 17 18 20 23 26 28 30 32 32 33 35 35 36 36 37 38 39 41 43 43 41 41 39 39 37
27 29 23 19 12 13 20 17 13 15 13 14 15 15 15 18 20 21 24 25 25 26 28 29 30 32 34 35 36 37 37 37 37 38 39 41 42 41 42 42 43 43 42 39
28 25 17 20 16 20 15 13 13 16 16 16 16 17 18 20 22 24 26 28 29 30 31 33 34 35 37 38 39 39 40 40 40 40 41 42 43 42 41 41 43 43 43 41
24 20 15 19 17 16 13 13 15 15 16 17 19 20 22 25 27 28 30 32 32 33 35 35 36 37 39 40 42 41 41 42 41 40 38 39 41 40 37 36 37 38 40 39
24 14 14 14 15 15 13 13 15 17 18 19 21 23 26 27 29 31 31 32 33 35 35 36 37 38 38 40 41 42 42 40 40 41 42 42 41 41 38 37 35 38 40 39
20 13 13 14 13 13 13 14 16 17 19 21 23 25 27 29 29 30 31 31 32 33 34 35 36 36 37 38 39 40 40 40 42 42 42 43 41 37 36 33 31 33 39 40
23 13 13 10 8 10 12 14 17 19 20 22 24 25 27 27 27 28 30 31 32 32 33 35 35 35 36 35 37 38 39 39 39 40 41 41 42 42 34 29 34 34 46 44
15 12 12 8 9 12 12 15 18 19 20 22 22 25 25 26 27 28 29 31 31 32 32 33 33 34 34 36 36 37 37 38 39 40 40 40 40 39 41 40 37 38 45 46
14 9 10 8 10 13 14 17 16 18 20 22 23 23 24 26 26 28 29 28 29 30 30 31 33 34 34 35 35 37 38 39 39 38 40 41 41 42 43 44 45 42 37 36
9 9 7 7 9 12 15 18 19 18 21 22 22 23 25 25 26 26 26 27 28 29 30 31 32 34 34 36 38 39 40 40 40 40 42 43 43 41 41 42 43 43 43 42
7 7 8 8 11 14 16 17 20 20 20 20 22 23 24 24 24 24 26 27 30 30 30 31 31 32 33 36 38 39 40 44 46 43 45 45 42 41 42 42 41 41 40 39
6 7 8 9 10 14 17 19 19 20 19 20 21 22 22 24 24 25 25 27 28 27 27 28 30 32 34 37 40 42 46 47 48 46 44 41 41 43 44 45 44 42 39 37
7 7 10 7 10 14 16 18 18 18 19 19 20 21 22 22 23 25 26 27 27 26 28 31 34 34 33 38 44 48 47 46 46 45 46 46 44 42 42 41 42 39 39 38
6 7 9 12 14 15 16 17 18 18 19 19 20 20 20 22 24 25 26 28 28 30 32 35 33 32 34 40 49 48 46 47 47 46 44 43 42 40 38 40 40 38 38 38
6 8 9 12 13 14 15 16 17 17 19 19 20 20 21 22 23 25 25 27 29 30 32 38 32 28 35 42 48 48 48 46 46 44 40 38 36 37 38 40 39 38 37 35
5 7 10 12 13 14 15 16 17 18 19 20 20 20 20 21 22 24 25 29 31 29 35 33 27 30 36 41 43 49 46 46 45 42 36 32 30 37 35 34 34 34 35 34
6 8 10 11 12 13 15 15 16 18 19 19 19 19 20 20 22 23 25 29 30 31 36 29 28 31 35 34 39 48 44 42 39 40 30 12 16 23 25 31 32 32 32 34
7 8 10 11 11 11 13 14 15 16 19 19 18 19 20 20 23 26 30 30 29 32 31 30 27 30 31 28 35 46 48 36 30 28 26 29 25 25 18 24 25 24 26 30
7 9 10 10 11 12 12 13 16 15 17 17 14 18 17 21 25 27 26 29 31 29 31 27 29 29 29 28 35 45 48 40 27 25 15 24 21 17 20 22 23 23 29 33
8 8 8 8 9 10 12 13 13 13 13 13 14 14 15 20 22 26 26 28 29 29 31 30 28 27 29 32 33 40 46 46 41 23 13 19 19 20 20 21 21 21 28 31
7 8 8 7 8 12 6 11 15 16 20 18 18 19 20 23 24 28 27 26 30 31 31 33 32 31 31 32 33 34 40 45 45 38 25 25 24 27 26 25 24 22 23 24
7 8 8 9 8 10 14 15 16 16 17 21 21 20 21 23 24 24 28 26 30 32 31 35 33 32 32 33 34 33 34 39 44 35 28 28 28 25 25 26 24 22 18 17
Wind_Direction
5 98 164 186 268 249 283 294 292 289 294 346 7 253 165 128 68 31 16 2 4 1 354 2 10 5 360 353 345 342 338 334 332 330 328 325 323 322 320 318 317 316 315 315
353 48 176 202 225 255 282 285 284 288 294 321 3 49 68 31 50 27 27 5 2 353 344 342 346 343 339 331 327 328 325 324 325 324 323 322 321 319 318 316 314 313 313 313
280 332 341 201 230 312 312 311 307 297 318 316 318 329 346 3 24 17 11 11 334 335 334 331 335 332 326 326 326 321 320 318 318 318 318 318 317 316 315 314 311 309 309 310
286 295 288 296 330 323 311 306 301 311 318 328 321 326 345 7 359 4 359 343 333 338 335 328 327 326 324 320 319 317 316 316 315 315 315 315 315 313 312 310 308 306 306 307
292 282 285 296 326 328 337 327 342 330 336 340 342 337 345 354 357 345 341 337 328 327 325 326 323 321 319 317 316 315 314 314 315 314 314 314 312 312 311 308 305 304 303 303
296 293 285 288 336 346 350 325 357 349 347 342 337 331 341 349 349 358 350 343 332 329 328 324 322 320 317 316 316 314 314 314 315 314 313 312 311 310 309 307 304 303 300 300
306 303 315 331 340 347 322 330 356 353 355 350 346 353 351 345 340 336 334 331 330 326 323 323 323 321 317 317 315 316 316 315 315 314 313 312 311 310 309 306 304 301 298 298
304 308 309 332 333 316 335 343 349 350 349 352 355 345 339 339 335 332 329 327 325 323 322 323 324 322 318 316 317 316 315 314 313 313 313 311 310 309 309 307 304 299 297 296
313 320 331 330 333 346 355 347 346 345 343 337 336 337 335 331 329 327 325 323 323 323 320 320 322 322 318 318 319 319 317 315 316 315 314 313 312 313 312 311 310 305 298 295
308 323 328 332 336 340 348 350 346 345 341 337 332 330 328 328 325 324 325 326 326 324 323 322 323 322 321 321 319 318 317 318 317 314 311 312 311 310 309 310 311 306 299 295
313 316 326 329 335 343 348 349 349 344 339 336 331 328 327 327 328 329 329 330 330 329 328 327 328 328 327 325 324 321 318 317 315 314 314 312 311 312 311 310 312 309 300 294
306 326 318 327 351 350 348 348 343 337 336 333 333 333 333 333 335 335 333 334 333 334 333 332 332 332 331 332 331 327 324 321 318 316 314 312 310 308 310 308 308 307 289 288
322 330 337 354 351 346 346 343 337 338 341 339 342 340 340 338 338 338 338 337 338 339 339 338 338 336 336 334 334 332 329 327 325 321 318 316 313 311 308 306 308 304 291 285
322 344 341 349 341 342 342 338 346 346 347 344 343 345 344 342 343 342 343 345 345 345 345 343 341 340 340 339 338 334 332 330 327 325 322 318 315 311 306 304 301 302 304 301
333 335 331 0 352 347 339 337 338 342 342 345 348 347 345 345 346 347 350 350 349 348 347 346 345 343 343 341 338 335 332 330 328 324 321 317 314 312 309 305 303 301 298 297
331 352 360 347 338 337 336 341 339 342 345 348 347 348 348 350 352 354 353 352 349 348 349 347 347 346 346 343 340 338 335 330 325 323 320 318 316 313 308 305 304 303 302 301
313 320 336 337 339 338 338 341 344 345 349 348 349 350 353 352 355 355 354 353 354 354 352 351 349 349 346 344 340 337 333 330 325 323 322 320 316 313 309 305 302 301 300 301
319 334 333 344 337 339 342 344 346 349 349 351 354 355 355 358 357 356 355 354 354 355 356 352 348 347 348 345 343 339 336 334 331 328 323 318 315 312 308 305 302 301 300 299
355 352 345 341 341 342 343 345 348 350 351 354 355 357 0 358 357 356 355 354 354 352 351 349 350 350 350 347 344 344 342 338 334 330 327 323 319 313 307 303 301 301 297 295
356 353 350 348 350 351 351 350 352 353 354 355 358 359 359 0 358 357 358 355 357 355 354 349 352 356 351 349 347 348 345 344 341 338 336 333 328 316 303 294 292 291 290 295
8 358 353 354 354 356 356 356 354 353 353 357 359 3 4 2 0 360 359 355 356 0 355 356 1 358 355 354 354 354 352 350 347 346 348 345 337 292 284 276 280 289 294 288
6 0 360 359 1 1 359 3 2 360 358 1 5 8 8 5 2 2 2 359 358 360 357 1 2 360 358 1 360 359 359 359 360 356 1 350 276 271 268 285 280 276 276 281
15 10 6 5 9 12 9 3 5 5 1 4 10 10 9 8 4 360 354 359 2 0 2 1 5 4 4 6 5 1 357 9 13 13 331 304 292 286 263 270 269 261 266 275
29 21 13 12 17 10 7 10 1 9 12 16 25 16 19 9 2 1 3 1 1 5 5 11 8 9 10 12 10 3 351 6 17 18 9 309 297 280 276 275 271 269 284 294
32 30 29 33 26 21 15 16 14 20 20 24 27 29 22 10 7 5 7 4 7 9 6 9 10 13 12 11 12 10 357 351 3 19 6 315 307 299 289 280 275 272 283 289
38 32 34 39 39 9 48 23 15 16 7 13 14 13 10 7 8 3 4 10 9 8 7 7 8 11 12 13 13 13 6 358 351 333 317 316 312 310 306 298 292 284 281 279
25 23 29 27 28 23 11 12 12 23 25 14 7 8 10 8 8 10 8 9 9 9 9 7 8 12 14 15 15 19 17 11 351 328 320 319 321 315 311 309 301 295 282 279